This is the latest recevied weather packets stored in our database for station/object KA9CBS. If no packets are shown the sender has not sent any weather packets the latest 10 day(s).
| Time | Temp. | Humidity | Pressure | Rain* | Wind** | Luminosity | Snow |
|---|---|---|---|---|---|---|---|
| 1788108676 | 31.11° C | 51% | 1020.2 hPa | 0 mm | - | 652 W/m² | - |
| 1788108372 | 31.11° C | 50% | 1020.3 hPa | 0 mm | - | 653 W/m² | - |
| 1788108068 | 31.11° C | 53% | 1020 hPa | 0 mm | - | 660 W/m² | - |
| 1788107764 | 31.11° C | 53% | 1020 hPa | 0 mm | - | 623 W/m² | - |
| 1788107463 | 31.11° C | 52% | 1019.9 hPa | 0 mm | - | 622 W/m² | - |
| 1788107159 | 30.56° C | 54% | 1020.1 hPa | 0 mm | - | 622 W/m² | - |
| 1788106855 | 30.56° C | 52% | 1020.1 hPa | 0 mm | - | 608 W/m² | - |
| 1788106555 | 30.56° C | 54% | 1020.2 hPa | 0 mm | - | 552 W/m² | - |
| 1788106249 | 30° C | 61% | 1020.2 hPa | 0 mm | - | 575 W/m² | - |
| 1788105946 | 30° C | 58% | 1020.2 hPa | 0 mm | - | 590 W/m² | - |
| 1788105641 | 30° C | 60% | 1020.3 hPa | 0 mm | - | 573 W/m² | - |
| 1788105337 | 30° C | 63% | 1020.3 hPa | 0 mm | - | 508 W/m² | - |
| 1788105032 | 29.44° C | 62% | 1020.4 hPa | 0 mm | - | 469 W/m² | - |
| 1788104727 | 29.44° C | 62% | 1020.4 hPa | 0 mm | - | 504 W/m² | - |
| 1788104424 | 29.44° C | 67% | 1020.4 hPa | 0 mm | - | 535 W/m² | - |
| 1788104120 | 28.89° C | 66% | 1020.1 hPa | 0 mm | - | 524 W/m² | - |
| 1788103819 | 28.89° C | 66% | 1020.3 hPa | 0 mm | - | 474 W/m² | - |
| 1788103514 | 28.33° C | 66% | 1020.1 hPa | 0 mm | - | 445 W/m² | - |
| 1788103213 | 28.33° C | 69% | 1020.1 hPa | 0 mm | - | 481 W/m² | - |
| 1788102907 | 27.78° C | 71% | 1020.1 hPa | 0 mm | - | 487 W/m² | - |
| 1788102602 | 27.78° C | 71% | 1020.2 hPa | 0 mm | - | 465 W/m² | - |
| 1788102301 | 27.22° C | 71% | 1020.1 hPa | 0 mm | - | 468 W/m² | - |
| 1788101996 | 26.67° C | 72% | 1020 hPa | 0 mm | - | 489 W/m² | - |
| 1788101696 | 26.67° C | 72% | 1020.1 hPa | 0 mm | - | 489 W/m² | - |
| 1788101391 | 26.67° C | 73% | 1020.1 hPa | 0 mm | - | 510 W/m² | - |
* Rain latest hour (hover to see other rain measurements)
** Current wind speed in m/s (hover to see current wind gust speed)